Location: Bilsington
(51.0667°N, 0.9167°E)
Time: 19:50:31
(UTC+00:00)

Daily predictions for brighter satellites

Satellite Brightness Start Highest point End
(mag) Time Altitude Azimuth Time Altitude Azimuth Time Altitude Azimuth
NOSS 2-1 (E) 4.2 16:27:49 10° NW 16:32:37 71° NE 16:39:22 10° SE
Cosmos 1844 Rocket 4.3 16:27:49 10° NW 16:33:07 41° WSW 16:38:22 10° S
SJ 16-02 4.3 16:31:57 10° NW 16:35:24 22° W 16:38:48 10° SSW
Okean-O 4.5 16:34:13 10° ENE 16:35:49 12° NE 16:37:23 10° NNE
Cosmos 1743 Rocket 3.9 16:32:42 10° N 16:37:01 45° ENE 16:41:17 10° SSE
Cosmos 841 Rocket 3.6 16:32:55 10° S 16:38:03 58° ESE 16:43:10 10° NNE
Meteor 2-3 Rocket 4.5 16:33:37 10° NNW 16:39:22 62° W 16:45:04 10° S
CORIOLIS 4.5 16:35:13 10° SE 16:40:20 45° ENE 16:45:29 10° N
Envisat 3.0 16:35:58 10° SSE 16:41:02 74° ENE 16:46:08 10° N
Cosmos 1408 Rocket 3.6 16:39:09 10° N 16:43:36 90° E 16:47:57 10° S
H-2A R/B 2.5 16:39:33 10° SSE 16:43:54 74° ENE 16:48:06 10° NNW
H-2A R/B 2.9 16:41:34 10° S 16:45:23 79° WSW 16:49:17 10° NNW
Cosmos 2315 Rocket 4.4 16:41:05 10° SSW 16:47:18 70° WNW 16:53:36 10° N
H-2A R/B 3.7 16:45:30 10° ENE 16:47:56 13° NE 16:50:21 10° NNE
Okean O Rocket 1.8 16:44:10 10° SE 16:48:20 47° ENE 16:52:33 10° N
Nadezhda 1 Rocket 4.4 16:42:31 10° SSE 16:48:24 43° E 16:54:23 10° NNE
Sich 1 4.0 16:45:03 10° N 16:48:45 25° ENE 16:52:25 10° SE
Cosmos 2333 4.3 16:46:19 10° SSW 16:52:01 88° WNW 16:57:42 10° NNE
Cosmos 1842 Rocket 3.6 16:47:47 10° S 16:52:03 60° E 16:56:20 10° NNE
Aureole 2 Rocket 2.8 16:50:01 10° NNW 16:52:41 52° WSW 16:55:26 10° S
Cosmos 405 Rocket 2.8 16:49:30 10° N 16:53:18 54° ENE 16:57:10 10° SSE
EP 1 4.3 16:52:20 10° SW 16:55:14 83° NW 16:57:36 12° NE
Cosmos 2154 Rocket 4.1 16:50:08 10° N 16:56:25 60° ENE 17:02:40 10° SSE
Cosmos 1805 Rocket 4.1 16:53:05 10° N 16:57:17 38° ENE 17:01:26 10° SE
Cosmos 1814 Rocket 4.1 16:55:35 10° SSW 17:00:53 69° ESE 17:06:11 10° NNE
YAOGAN 6 2.6 16:57:31 10° SSE 17:01:11 90° NW 17:04:51 10° NNW
Cosmos 2341 Rocket 4.4 16:57:47 10° N 17:03:39 40° ENE 17:09:31 10° SE
Cosmos 1943 Rocket 3.3 16:59:54 10° NNW 17:04:15 23° NE 17:07:55 13° E
Cosmos 2322 Rocket 3.7 17:01:59 10° WSW 17:06:59 30° NW 17:11:59 10° NNE
SMAP 3.0 17:02:25 10° SSE 17:07:04 78° ENE 17:11:45 10° NNW
Cosmos 1570 Rocket 4.0 17:02:08 10° SSW 17:07:28 88° ESE 17:12:47 10° NNE
Helios 1A Rocket 4.3 17:05:21 10° ESE 17:08:08 18° ENE 17:10:55 10° NNE
SL-16 R/B 3.8 17:06:02 10° SE 17:08:49 14° E 17:09:55 13° E
USA 281 3.6 17:02:49 10° ESE 17:08:54 43° NE 17:15:02 10° NNW
CZ-4C R/B 3.2 17:09:35 10° N 17:13:13 77° WNW 17:16:50 10° SSW
ATLAS 5 CENTAUR R/B 4.5 17:09:32 10° WNW 17:14:30 30° WSW 17:20:06 10° S
CREW DRAGON DEMO-1 DEB 2.7 17:15:40 10° W 17:18:39 86° N 17:20:29 21° E
NOSS 0 Rocket 4.1 17:12:51 10° S 17:18:52 53° ESE 17:24:41 11° NE
Cosmos 405 3.2 17:16:58 10° SSW 17:20:27 70° WNW 17:23:56 10° N
Cosmos 1606 3.6 17:17:03 10° SSE 17:20:28 30° E 17:23:04 15° NE
Cosmos 389 Rocket 3.5 17:17:41 10° SSE 17:20:29 24° E 17:21:15 22° ENE
Feng Yun 1-1 Rocket 4.4 17:14:56 10° SE 17:20:34 54° ENE 17:26:05 10° N
Cosmos 2333 Rocket 2.5 17:16:14 10° SW 17:21:55 71° WNW 17:27:37 10° NNE
CZ-2C R/B 3.8 17:17:58 10° ESE 17:22:16 28° ENE 17:26:26 10° N
Cosmos 2084 Rocket 4.3 17:19:07 10° WSW 17:23:03 41° NW 17:26:26 14° NE
Cosmos 2327 Rocket 4.5 17:17:54 10° N 17:24:04 89° W 17:30:17 10° S
H-2A R/B 2.0 17:20:02 10° NNE 17:24:11 88° WNW 17:28:24 10° SSW
Landsat 5 4.0 17:22:47 10° N 17:27:05 66° WNW 17:31:29 10° SSW
COSMOS 2428 2.8 17:21:25 10° SSW 17:27:10 80° WNW 17:32:57 10° NNE
Cosmos 1607 4.5 17:20:59 10° WSW 17:27:15 58° NW 17:33:13 12° NE
Cosmos 1862 3.7 17:25:40 10° NNW 17:29:42 66° W 17:33:41 10° S
Cosmos 724 4.3 17:24:11 10° SW 17:30:05 86° SE 17:35:18 15° NE
Cosmos 1818 3.9 17:25:13 10° NW 17:30:41 72° SW 17:36:07 10° SSE
Cosmos 2150 Rocket 4.4 17:26:06 10° NNW 17:31:15 66° WSW 17:36:20 10° S
SL-8 Rocket 4.2 17:25:41 10° N 17:31:41 47° ENE 17:37:41 10° SE
ADEOS Rocket 3.9 17:24:25 10° NNE 17:31:53 68° WNW 17:39:36 10° SSW
Cosmos 2278 Rocket 2.7 17:28:12 10° NW 17:33:50 64° WSW 17:39:26 10° SSE
Cosmos 1633 Rocket 3.5 17:30:54 10° N 17:35:00 37° ENE 17:39:03 10° SE
USA 215 3.5 17:32:16 19° ENE 17:36:56 53° SE 17:43:18 10° SW
Cosmos 2181 Rocket 4.4 17:32:41 10° SSE 17:38:35 40° E 17:44:28 10° NNE
CZ-4 R/B 2.0 17:37:52 21° ESE 17:39:42 32° ENE 17:43:16 10° N
SAR-Lupe-4 4.3 17:40:59 31° E 17:41:10 31° E 17:44:24 10° SSE
Meteor 1-25 Rocket 4.4 17:35:50 10° N 17:41:15 48° ENE 17:46:41 10° SE
CZ-2D R/B 3.3 17:43:33 10° SSE 17:47:14 50° ENE 17:50:58 10° N
Cosmos 2360 Rocket 3.9 17:43:55 10° W 17:48:40 27° NW 17:53:25 10° NNE
Cosmos 1125 Rocket 3.9 17:43:48 10° NNW 17:48:58 66° WSW 17:54:07 10° S
BREEZE-M DEB (TANK) 3.7 17:47:25 10° SSW 17:48:48 17° SSE 17:48:48 17° SSE
Meteor 2-12 Rocket 4.4 17:42:59 10° N 17:49:12 85° E 17:55:20 10° S
Cosmos 482 Debris 4.3 17:47:38 10° WNW 17:48:41 29° WNW 17:48:41 29° WNW
Cosmos 1356 3.2 17:47:16 10° N 17:50:43 79° ENE 17:54:08 10° SSE
Cosmos 44 3.6 17:47:26 10° NW 17:52:34 55° NE 17:55:25 26° ESE
IRS-1C Rocket 4.0 17:47:32 10° SSE 17:52:48 73° ENE 17:58:05 10° NNW
ERS-2 2.0 17:50:53 24° NNE 17:53:00 69° ESE 17:56:39 10° S
Cosmos 2221 4.0 17:49:39 10° SW 17:53:43 38° WNW 17:57:46 10° N
Cosmos 1939 Rocket 2.6 17:50:14 10° SSE 17:54:06 83° ENE 17:58:01 10° NNW
Cosmos 2219 Rocket 3.1 17:51:40 10° SW 17:57:06 46° NW 18:02:22 11° NNE
CZ-4B R/B 4.5 17:53:19 10° SSW 17:58:21 41° W 18:03:22 10° NNW
SAR-Lupe-1 4.3 17:58:34 46° ESE 17:58:34 46° ESE 18:01:52 10° S
ISS -3.0 17:55:48 10° SW 17:58:57 38° SSE 17:59:04 37° SE
CZ-4B R/B 1.2 18:00:04 38° N 18:01:06 78° WNW 18:04:09 10° SSW
SL-16 R/B 4.5 18:00:21 10° WNW 18:03:43 16° NNW 18:07:07 10° N
Cosmos 2237 Rocket 2.1 17:59:14 10° SSW 18:04:51 85° ESE 18:08:37 22° NNE
YAOGAN 1 2.6 18:03:51 28° SE 18:05:49 51° ENE 18:10:03 10° N
Cosmos 1470 Rocket 4.1 18:05:14 10° N 18:08:28 39° NE 18:08:28 39° NE
Okean-O 2.5 18:07:06 10° SSE 18:11:29 69° ENE 18:15:55 10° N
USA 267 3.4 18:05:49 13° SE 18:11:41 71° SW 18:18:13 10° WNW
COSMO-SKYMED 1 2.4 18:10:59 27° NNE 18:13:19 76° ESE 18:17:39 10° S
SL-24 R/B 3.8 18:13:03 52° NE 18:13:50 64° E 18:17:40 10° S
USA 81 3.9 18:09:54 10° N 18:15:14 84° E 18:20:32 10° S
Cosmos 2218 Rocket 3.8 18:09:20 10° N 18:15:32 78° E 18:21:41 10° SSE
Cosmos 2369 Rocket 2.6 18:10:56 10° NNW 18:16:18 40° NE 18:16:39 39° ENE
CSL-04 Rocket 3.7 18:18:44 39° ESE 18:20:17 53° ENE 18:25:28 10° N
Cosmos 1980 3.9 18:17:10 10° SW 18:22:51 71° WNW 18:26:25 24° NNE
Okean O Rocket 4.1 18:21:30 10° SW 18:24:56 23° W 18:28:25 10° NW
H-2A R/B 2.0 18:23:36 27° SE 18:26:27 63° ENE 18:31:37 10° N
Sich 1 4.4 18:22:26 10° NNW 18:26:36 40° W 18:30:41 10° SSW
Cosmos 2366 rocket 3.9 18:21:45 10° N 18:28:01 90° WNW 18:34:11 10° S
PSLV R/B 4.0 18:30:53 64° S 18:30:53 64° S 18:34:21 10° SSW
Cosmos 1933 3.3 18:27:16 10° SSW 18:31:18 83° W 18:31:27 80° NW
Meteor 1-14 Rocket 4.2 18:28:20 10° N 18:34:14 69° ENE 18:38:09 22° SSE
Cosmos 1932 4.5 18:28:48 10° SW 18:35:21 90° NW 18:37:56 40° NE
Cosmos 2297 3.9 18:34:14 10° NNW 18:39:53 69° WSW 18:44:22 17° SSE
Cosmos 783 Rocket 4.4 18:37:15 10° SSW 18:42:30 73° ESE 18:42:30 73° ESE
Helios 1A Rocket 3.4 18:39:38 15° S 18:42:55 57° WSW 18:46:55 10° NNW
Cosmos 1151 Rocket 3.3 18:43:01 10° SSW 18:46:45 62° SW 18:46:45 62° SW
SL-24 DEB 4.3 18:42:44 10° N 18:47:32 77° W 18:52:16 10° SSW
Cosmos 1943 Rocket 2.0 18:43:12 10° NNW 18:48:47 88° ENE 18:49:30 69° SE
Meteor 1-26 Rocket 4.2 18:44:10 10° S 18:50:11 85° E 18:53:29 29° NNE
Cosmos 1328 Rocket 4.3 18:45:56 10° SSW 18:48:55 44° SSW 18:48:55 44° SSW
SL-16 R/B 2.0 18:46:20 10° SSW 18:51:51 75° SE 18:51:51 75° SE
USA 281 3.9 18:46:55 10° S 18:53:18 53° WSW 18:59:45 10° NNW
MOS 1 Rocket 3.5 18:53:31 78° NE 18:53:53 86° ESE 18:59:21 10° SSW
Cosmos 389 Rocket 4.5 18:52:09 10° SW 18:55:06 26° WNW 18:55:08 26° WNW
ARGOS 3.1 18:57:17 72° N 18:57:17 72° N 19:02:11 10° NNW
CZ-2C R/B 3.8 18:57:00 10° S 19:01:59 49° W 19:06:46 10° NNW
Cosmos 2333 Rocket 4.3 19:03:05 10° W 19:07:15 20° NW 19:10:10 14° N
Cosmos 1867 3.7 19:03:27 10° SW 19:08:14 69° WSW 19:08:14 69° WSW
CZ-4 R/B 3.3 19:13:54 26° WSW 19:14:45 28° W 19:18:13 10° NW
USA 215 3.2 19:19:37 69° NNE 19:20:10 73° NNW 19:26:41 10° WSW
Cosmos 1821 Rocket 4.2 19:24:33 10° NNW 19:30:01 66° NW 19:30:01 66° NW
Cosmos 2237 Rocket 4.0 19:45:03 10° W 19:49:38 25° NW 19:50:28 24° NNW
Cosmos 2369 Rocket 3.7 19:55:01 10° NW 19:58:28 33° WNW 19:58:28 33° WNW
H-2A R/B 4.2 20:04:13 18° WSW 20:06:16 23° W 20:10:23 10° NW
